Date String (YYYY-MM-DD hh:mm:ss) UTC,Instrument flags,Ambient pressure (hPa),Sample flow (lpm),Bypass flow (lpm),Sample temperature (°C),Ambient temperature (°C),ASC tube jacket temperature (°C),LED temperature (°C),Box temperature (°C),Sample RH (%),Span deviation,Mass concentration (μg/m³),Mass concentration (μg/m³),Mass concentration (μg/m³)
DateTimeUTC,F1_M11,P_M11,Q1_M11,Q2_M11,T1_M11,T2_M11,T3_M11,T4_M11,T5_M11,U1_M11,ZSPAN_M11,X2_M11,X0_M11,X1_M11
2023-04-21 19:00:00,,0829.1,5.00,0.00,23.0,21.6,00.0,31.3,24.5,07.4,0000.0,0003.54,0009.51,0002.22
2023-04-21 19:01:00,,0829.1,5.00,0.00,23.0,21.7,00.0,31.3,24.5,07.4,0000.0,0003.56,0009.58,0002.22
2023-04-21 19:02:00,,0829.1,5.00,0.00,23.0,21.7,00.0,31.3,24.6,07.5,0000.0,0003.57,0009.62,0002.20
2023-04-21 19:03:00,,0828.9,5.00,0.00,23.0,21.7,00.0,31.3,24.6,07.2,0000.0,0003.56,0009.65,0002.19
2023-04-21 19:04:00,,0828.8,4.99,0.00,23.0,21.7,00.0,31.3,24.6,07.4,0000.0,0003.54,0009.73,0002.19
2023-04-21 19:05:00,,0828.7,5.00,0.00,23.0,21.7,00.0,31.3,24.6,07.6,0000.0,0003.55,0009.48,0002.19
2023-04-21 19:06:00,,0829.0,5.00,0.00,23.0,21.7,00.0,31.3,24.6,07.8,0000.0,0003.56,0009.34,0002.20
2023-04-21 19:07:00,,0829.1,5.00,0.00,23.0,21.7,00.0,31.3,24.6,07.7,0000.0,0003.55,0009.70,0002.20
2023-04-21 19:08:00,,0829.1,5.00,0.00,23.1,21.7,00.0,31.3,24.6,07.5,0000.0,0003.51,0009.11,0002.20
2023-04-21 19:09:00,,0829.1,5.00,0.00,23.1,21.7,00.0,31.3,24.6,07.5,0000.0,0003.49,0008.20,0002.20
2023-04-21 19:10:00,,0829.1,5.00,0.00,23.1,21.7,00.0,31.3,24.6,07.5,0000.0,0003.49,0007.97,0002.21
2023-04-21 19:11:00,,0829.0,5.00,0.00,23.1,21.7,00.0,31.3,24.6,07.7,0000.0,0003.53,0008.63,0002.22
2023-04-21 19:12:00,,0829.0,5.00,0.00,23.1,21.7,00.0,31.4,24.6,07.4,0000.0,0003.53,0008.61,0002.23
2023-04-21 19:13:00,,0829.0,5.00,0.00,23.1,21.7,00.0,31.4,24.6,07.4,0000.0,0003.52,0008.61,0002.24
2023-04-21 19:14:00,,0829.1,5.00,0.00,23.1,21.7,00.0,31.4,24.6,07.3,0000.0,0003.50,0008.96,0002.23
2023-04-21 19:15:00,,0829.1,5.00,0.00,23.1,21.8,00.0,31.4,24.6,07.2,0000.0,0003.52,0008.89,0002.24
2023-04-21 19:16:00,,0829.1,5.01,0.00,23.1,21.8,00.0,31.4,24.6,07.3,0000.0,0003.53,0008.91,0002.27
2023-04-21 19:17:00,,0829.1,5.00,0.00,23.1,21.8,00.0,31.4,24.7,07.4,0000.0,0003.55,0009.11,0002.28
2023-04-21 19:18:00,,0828.8,5.00,0.00,23.1,21.8,00.0,31.4,24.7,07.8,0000.0,0003.57,0008.94,0002.31
2023-04-21 19:19:00,,0829.0,5.00,0.00,23.1,21.8,00.0,31.4,24.7,07.6,0000.0,0003.60,0008.97,0002.33
2023-04-21 19:20:00,,0829.1,5.00,0.00,23.1,21.8,00.0,31.4,24.7,07.4,0000.0,0003.60,0009.01,0002.36
2023-04-21 19:21:00,,0829.0,5.00,0.00,23.1,21.9,00.0,31.4,24.7,07.8,0000.0,0003.62,0009.42,0002.38
2023-04-21 19:22:00,,0829.0,5.00,0.00,23.2,21.9,00.0,31.4,24.7,07.4,0000.0,0003.61,0009.27,0002.39
2023-04-21 19:23:00,,0828.9,5.00,0.00,23.2,21.9,00.0,31.4,24.7,07.3,0000.0,0003.61,0009.34,0002.37
2023-04-21 19:24:00,,0828.9,4.99,0.00,23.2,21.9,00.0,31.4,24.8,07.3,0000.0,0003.66,0009.48,0002.36
2023-04-21 19:25:00,,0829.0,5.00,0.00,23.2,21.9,00.0,31.4,24.8,07.6,0000.0,0003.68,0009.21,0002.36
2023-04-21 19:26:00,,0828.9,5.00,0.00,23.2,21.9,00.0,31.5,24.8,07.3,0000.0,0003.69,0009.28,0002.34
2023-04-21 19:27:00,,0829.0,5.00,0.00,23.2,21.9,00.0,31.5,24.8,07.3,0000.0,0003.67,0009.24,0002.32
2023-04-21 19:28:00,,0829.0,5.00,0.00,23.3,22.0,00.0,31.5,24.8,07.3,0000.0,0003.65,0008.88,0002.32
2023-04-21 19:29:00,,0829.0,5.00,0.00,23.3,22.0,00.0,31.5,24.8,07.3,0000.0,0003.63,0008.63,0002.32
2023-04-21 19:30:00,,0829.0,5.00,0.00,23.3,22.0,00.0,31.5,24.8,07.3,0000.0,0003.64,0008.70,0002.30
2023-04-21 19:31:00,,0829.0,5.00,0.00,23.3,22.0,00.0,31.5,24.9,07.3,0000.0,0003.67,0008.70,0002.30
2023-04-21 19:32:00,,0829.0,5.01,0.00,23.3,22.0,00.0,31.5,24.9,07.3,0000.0,0003.64,0008.16,0002.30
2023-04-21 19:33:00,,0829.1,5.00,0.00,23.3,22.0,00.0,31.5,24.9,07.4,0000.0,0003.62,0007.93,0002.29
2023-04-21 19:34:00,,0829.1,5.01,0.00,23.3,22.0,00.0,31.5,24.9,07.5,0000.0,0003.58,0007.80,0002.29
2023-04-21 19:35:00,,0829.1,4.99,0.00,23.3,22.0,00.0,31.6,24.9,07.6,0000.0,0003.51,0007.82,0002.28
2023-04-21 19:36:00,,0829.0,5.00,0.00,23.3,22.1,00.0,31.6,24.9,07.8,0000.0,0003.46,0008.05,0002.26
2023-04-21 19:37:00,,0829.0,5.00,0.00,23.4,22.1,00.0,31.6,24.9,08.0,0000.0,0003.41,0007.96,0002.24
2023-04-21 19:38:00,,0829.0,5.00,0.00,23.4,22.1,00.0,31.6,24.9,08.3,0000.0,0003.40,0007.98,0002.18
2023-04-21 19:39:00,,0828.9,5.00,0.00,23.4,22.1,00.0,31.6,24.9,08.3,0000.0,0003.35,0007.95,0002.10
2023-04-21 19:40:00,,0828.9,5.00,0.00,23.4,22.1,00.0,31.6,24.9,08.3,0000.0,0003.29,0007.82,0002.02
2023-04-21 19:41:00,,0828.8,5.01,0.00,23.4,22.1,00.0,31.6,24.9,08.3,0000.0,0003.24,0007.72,0001.98
2023-04-21 19:42:00,,0828.8,5.00,0.00,23.4,22.0,00.0,31.6,24.9,08.2,0000.0,0003.20,0007.70,0001.91
2023-04-21 19:43:00,,0828.8,5.01,0.00,23.4,22.0,00.0,31.6,24.9,07.9,0000.0,0003.18,0007.63,0001.85
2023-04-21 19:44:00,,0828.8,5.00,0.00,23.4,22.0,00.0,31.6,24.9,08.0,0000.0,0003.12,0007.35,0001.80
2023-04-21 19:45:00,,0828.9,5.00,0.00,23.4,22.1,00.0,31.6,24.9,07.8,0000.0,0003.15,0007.73,0001.77
2023-04-21 19:46:00,,0828.8,5.00,0.00,23.4,22.1,00.0,31.7,24.9,07.9,0000.0,0003.16,0008.00,0001.74
2023-04-21 19:47:00,,0829.0,5.00,0.00,23.4,22.1,00.0,31.7,25.0,07.8,0000.0,0003.14,0007.68,0001.73
2023-04-21 19:48:00,,0829.0,5.00,0.00,23.4,22.1,00.0,31.7,25.0,07.8,0000.0,0003.12,0007.63,0001.70
2023-04-21 19:49:00,,0828.9,4.99,0.00,23.4,22.1,00.0,31.7,25.0,07.7,0000.0,0003.06,0007.48,0001.71
2023-04-21 19:50:00,,0828.9,5.00,0.00,23.5,22.2,00.0,31.7,25.0,08.2,0000.0,0003.08,0007.52,0001.73
2023-04-21 19:51:00,,0828.7,5.01,0.00,23.5,22.2,00.0,31.7,25.0,08.5,0000.0,0003.10,0007.58,0001.76
2023-04-21 19:52:00,,0828.7,5.02,0.00,23.5,22.1,00.0,31.7,25.0,08.6,0000.0,0003.10,0007.60,0001.76
2023-04-21 19:53:00,,0828.8,5.00,0.00,23.5,22.1,00.0,31.7,25.0,08.3,0000.0,0003.05,0007.51,0001.76
2023-04-21 19:54:00,,0828.8,4.99,0.00,23.4,22.1,00.0,31.7,24.9,08.3,0000.0,0002.99,0007.49,0001.76
2023-04-21 19:55:00,,0828.8,4.99,0.00,23.4,22.1,00.0,31.7,24.9,08.3,0000.0,0003.04,0008.06,0001.75
2023-04-21 19:56:00,,0828.8,5.01,0.00,23.4,22.1,00.0,31.7,24.9,08.3,0000.0,0002.94,0007.56,0001.72
2023-04-21 19:57:00,,0828.8,5.02,0.00,23.4,22.1,00.0,31.7,25.0,08.3,0000.0,0002.86,0007.12,0001.68
2023-04-21 19:58:00,,0828.8,5.00,0.00,23.5,22.1,00.0,31.7,25.0,08.3,0000.0,0002.89,0007.04,0001.67
2023-04-21 19:59:00,,0828.9,5.00,0.00,23.5,22.1,00.0,31.7,25.0,08.3,0000.0,0002.88,0006.90,0001.68
